Time,TemperatureF,DewpointF,PressureIn,WindDirection,WindDirectionDegrees,WindSpeedMPH,WindSpeedGustMPH,Humidity,HourlyPrecipIn,Conditions,Clouds,dailyrainin,SoftwareType,DateUTC
2013-04-17 00:03:00,76.0,-99.9,30.13,ENE,64,6.0,12.0,-999,-99.99,,,-99.99,,2013-04-17 04:03:00,
2013-04-17 00:13:00,75.0,-99.9,30.14,ENE,68,6.0,10.0,-999,-99.99,,,-99.99,,2013-04-17 04:13:00,
2013-04-17 00:23:00,75.0,-99.9,30.14,ENE,65,6.0,9.0,-999,-99.99,,,-99.99,,2013-04-17 04:23:00,
2013-04-17 00:33:00,75.0,-99.9,30.14,ENE,66,6.0,9.0,-999,-99.99,,,-99.99,,2013-04-17 04:33:00,
2013-04-17 00:43:00,75.0,-99.9,30.14,ENE,72,5.0,9.0,-999,-99.99,,,-99.99,,2013-04-17 04:43:00,
2013-04-17 00:53:00,75.0,-99.9,30.14,ENE,59,6.0,9.0,-999,-99.99,,,-99.99,,2013-04-17 04:53:00,
2013-04-17 01:03:00,74.0,-99.9,30.14,ENE,64,6.0,9.0,-999,-99.99,,,-99.99,,2013-04-17 05:03:00,
2013-04-17 01:12:00,74.0,-99.9,30.14,ENE,70,6.0,10.0,-999,-99.99,,,-99.99,,2013-04-17 05:12:00,
2013-04-17 01:22:00,74.0,-99.9,30.13,ENE,70,8.0,11.0,-999,-99.99,,,-99.99,,2013-04-17 05:22:00,
2013-04-17 01:32:00,74.0,-99.9,30.13,ENE,78,6.0,9.0,-999,-99.99,,,-99.99,,2013-04-17 05:32:00,
2013-04-17 01:43:00,74.0,-99.9,30.12,ENE,74,6.0,9.0,-999,-99.99,,,-99.99,,2013-04-17 05:43:00,
2013-04-17 01:52:00,74.0,-99.9,30.12,ENE,61,6.0,9.0,-999,-99.99,,,-99.99,,2013-04-17 05:52:00,
2013-04-17 02:02:00,73.0,-99.9,30.12,NE,56,6.0,8.0,-999,-99.99,,,-99.99,,2013-04-17 06:02:00,
2013-04-17 02:12:00,73.0,-99.9,30.12,ENE,59,5.0,10.0,-999,-99.99,,,-99.99,,2013-04-17 06:12:00,
2013-04-17 02:22:00,73.0,-99.9,30.11,ENE,66,6.0,9.0,-999,-99.99,,,-99.99,,2013-04-17 06:22:00,
2013-04-17 02:32:00,73.0,-99.9,30.11,ENE,59,6.0,9.0,-999,-99.99,,,-99.99,,2013-04-17 06:32:00,
2013-04-17 02:42:00,73.0,-99.9,30.11,ENE,64,5.0,8.0,-999,-99.99,,,-99.99,,2013-04-17 06:42:00,
2013-04-17 02:52:00,73.0,-99.9,30.11,NE,52,5.0,9.0,-999,-99.99,,,-99.99,,2013-04-17 06:52:00,
2013-04-17 03:02:00,73.0,-99.9,30.10,ENE,69,6.0,9.0,-999,-99.99,,,-99.99,,2013-04-17 07:02:00,
2013-04-17 03:12:00,73.0,-99.9,30.10,ENE,65,5.0,11.0,-999,-99.99,,,-99.99,,2013-04-17 07:12:00,
2013-04-17 03:22:00,73.0,-99.9,30.10,NE,51,4.0,9.0,-999,-99.99,,,-99.99,,2013-04-17 07:22:00,
2013-04-17 03:32:00,73.0,-99.9,30.10,NE,42,4.0,8.0,-999,-99.99,,,-99.99,,2013-04-17 07:32:00,
2013-04-17 03:42:00,73.0,-99.9,30.10,NNE,26,4.0,8.0,-999,-99.99,,,-99.99,,2013-04-17 07:42:00,
2013-04-17 03:52:00,72.0,-99.9,30.10,NE,53,5.0,8.0,-999,-99.99,,,-99.99,,2013-04-17 07:52:00,
2013-04-17 04:02:00,72.0,-99.9,30.09,NE,56,6.0,7.0,-999,-99.99,,,-99.99,,2013-04-17 08:02:00,
2013-04-17 04:12:00,72.0,-99.9,30.09,ENE,58,5.0,8.0,-999,-99.99,,,-99.99,,2013-04-17 08:12:00,
2013-04-17 04:22:00,72.0,-99.9,30.09,NE,48,4.0,7.0,-999,-99.99,,,-99.99,,2013-04-17 08:22:00,
2013-04-17 04:33:00,72.0,-99.9,30.09,NE,43,5.0,9.0,-999,-99.99,,,-99.99,,2013-04-17 08:33:00,
2013-04-17 04:42:00,72.0,-99.9,30.09,NE,41,4.0,10.0,-999,-99.99,,,-99.99,,2013-04-17 08:42:00,
2013-04-17 04:52:00,72.0,-99.9,30.09,ENE,62,6.0,12.0,-999,-99.99,,,-99.99,,2013-04-17 08:52:00,
2013-04-17 05:02:00,72.0,-99.9,30.09,ENE,58,5.0,10.0,-999,-99.99,,,-99.99,,2013-04-17 09:02:00,
2013-04-17 05:12:00,72.0,-99.9,30.08,ENE,61,5.0,11.0,-999,-99.99,,,-99.99,,2013-04-17 09:12:00,
2013-04-17 05:22:00,72.0,-99.9,30.08,ENE,59,6.0,10.0,-999,-99.99,,,-99.99,,2013-04-17 09:22:00,
2013-04-17 05:33:00,71.0,-99.9,30.08,ENE,58,8.0,11.0,-999,-99.99,,,-99.99,,2013-04-17 09:33:00,
2013-04-17 05:43:00,71.0,-99.9,30.08,ENE,57,5.0,11.0,-999,-99.99,,,-99.99,,2013-04-17 09:43:00,
2013-04-17 05:53:00,71.0,-99.9,30.08,ENE,61,5.0,11.0,-999,-99.99,,,-99.99,,2013-04-17 09:53:00,
2013-04-17 06:03:00,71.0,-99.9,30.08,ENE,58,7.0,11.0,-999,-99.99,,,-99.99,,2013-04-17 10:03:00,
2013-04-17 06:13:00,71.0,-99.9,30.08,ENE,68,6.0,10.0,-999,-99.99,,,-99.99,,2013-04-17 10:13:00,
2013-04-17 06:23:00,71.0,-99.9,30.09,NE,56,7.0,10.0,-999,-99.99,,,-99.99,,2013-04-17 10:23:00,
2013-04-17 06:33:00,71.0,-99.9,30.09,NE,55,6.0,12.0,-999,-99.99,,,-99.99,,2013-04-17 10:33:00,
2013-04-17 06:43:00,71.0,-99.9,30.09,ENE,63,6.0,11.0,-999,-99.99,,,-99.99,,2013-04-17 10:43:00,
2013-04-17 06:53:00,71.0,-99.9,30.09,ENE,58,7.0,11.0,-999,-99.99,,,-99.99,,2013-04-17 10:53:00,
2013-04-17 07:02:00,71.0,-99.9,30.09,ENE,69,7.0,11.0,-999,-99.99,,,-99.99,,2013-04-17 11:02:00,
2013-04-17 07:12:00,71.0,-99.9,30.10,ENE,61,7.0,10.0,-999,-99.99,,,-99.99,,2013-04-17 11:12:00,
2013-04-17 07:22:00,71.0,-99.9,30.10,ENE,66,7.0,11.0,-999,-99.99,,,-99.99,,2013-04-17 11:22:00,
2013-04-17 07:32:00,71.0,-99.9,30.10,ENE,63,7.0,9.0,-999,-99.99,,,-99.99,,2013-04-17 11:32:00,
2013-04-17 07:42:00,71.0,-99.9,30.11,ENE,70,6.0,10.0,-999,-99.99,,,-99.99,,2013-04-17 11:42:00,
2013-04-17 07:52:00,71.0,-99.9,30.11,ENE,58,7.0,11.0,-999,-99.99,,,-99.99,,2013-04-17 11:52:00,
2013-04-17 08:03:00,72.0,-99.9,30.11,ENE,67,6.0,10.0,-999,-99.99,,,-99.99,,2013-04-17 12:03:00,
2013-04-17 08:12:00,72.0,-99.9,30.11,NE,53,8.0,11.0,-999,-99.99,,,-99.99,,2013-04-17 12:12:00,
2013-04-17 08:22:00,72.0,-99.9,30.11,ENE,57,9.0,13.0,-999,-99.99,,,-99.99,,2013-04-17 12:22:00,
2013-04-17 08:32:00,73.0,-99.9,30.12,ENE,63,7.0,11.0,-999,-99.99,,,-99.99,,2013-04-17 12:32:00,
2013-04-17 08:42:00,73.0,-99.9,30.12,ENE,75,9.0,11.0,-999,-99.99,,,-99.99,,2013-04-17 12:42:00,
2013-04-17 08:52:00,73.0,-99.9,30.12,ENE,59,7.0,13.0,-999,-99.99,,,-99.99,,2013-04-17 12:52:00,
2013-04-17 09:02:00,74.0,-99.9,30.12,ENE,70,11.0,14.0,-999,-99.99,,,-99.99,,2013-04-17 13:02:00,
2013-04-17 09:12:00,74.0,-99.9,30.12,ENE,65,10.0,13.0,-999,-99.99,,,-99.99,,2013-04-17 13:12:00,
2013-04-17 09:22:00,74.0,-99.9,30.12,ENE,70,9.0,15.0,-999,-99.99,,,-99.99,,2013-04-17 13:22:00,
2013-04-17 09:32:00,75.0,-99.9,30.12,ENE,65,7.0,13.0,-999,-99.99,,,-99.99,,2013-04-17 13:32:00,
2013-04-17 09:42:00,75.0,-99.9,30.12,NE,51,8.0,14.0,-999,-99.99,,,-99.99,,2013-04-17 13:42:00,
2013-04-17 09:52:00,76.0,-99.9,30.13,ENE,61,10.0,17.0,-999,-99.99,,,-99.99,,2013-04-17 13:52:00,
2013-04-17 10:02:00,76.0,-99.9,30.12,NE,50,7.0,14.0,-999,-99.99,,,-99.99,,2013-04-17 14:02:00,
2013-04-17 10:12:00,77.0,-99.9,30.13,ENE,58,8.0,13.0,-999,-99.99,,,-99.99,,2013-04-17 14:12:00,
2013-04-17 10:22:00,77.0,-99.9,30.13,ENE,58,8.0,13.0,-999,-99.99,,,-99.99,,2013-04-17 14:22:00,
2013-04-17 10:32:00,77.0,-99.9,30.12,ENE,70,9.0,16.0,-999,-99.99,,,-99.99,,2013-04-17 14:32:00,
2013-04-17 10:43:00,78.0,-99.9,30.12,ENE,65,9.0,13.0,-999,-99.99,,,-99.99,,2013-04-17 14:43:00,
2013-04-17 10:52:00,78.0,-99.9,30.12,ENE,64,6.0,14.0,-999,-99.99,,,-99.99,,2013-04-17 14:52:00,
2013-04-17 11:02:00,79.0,-99.9,30.12,NE,42,6.0,11.0,-999,-99.99,,,-99.99,,2013-04-17 15:02:00,
2013-04-17 11:12:00,79.0,-99.9,30.11,East,80,9.0,14.0,-999,-99.99,,,-99.99,,2013-04-17 15:12:00,
2013-04-17 11:22:00,79.0,-99.9,30.12,ENE,75,11.0,13.0,-999,-99.99,,,-99.99,,2013-04-17 15:22:00,
2013-04-17 11:33:00,79.0,-99.9,30.11,ENE,61,11.0,15.0,-999,-99.99,,,-99.99,,2013-04-17 15:33:00,
2013-04-17 11:43:00,80.0,-99.9,30.11,East,88,7.0,15.0,-999,-99.99,,,-99.99,,2013-04-17 15:43:00,
2013-04-17 11:53:00,80.0,-99.9,30.11,ENE,60,9.0,14.0,-999,-99.99,,,-99.99,,2013-04-17 15:53:00,
2013-04-17 12:03:00,81.0,-99.9,30.11,East,98,8.0,14.0,-999,-99.99,,,-99.99,,2013-04-17 16:03:00,
2013-04-17 12:13:00,81.0,-99.9,30.11,NE,53,6.0,13.0,-999,-99.99,,,-99.99,,2013-04-17 16:13:00,
2013-04-17 12:23:00,81.0,-99.9,30.10,ENE,68,9.0,13.0,-999,-99.99,,,-99.99,,2013-04-17 16:23:00,
2013-04-17 12:32:00,81.0,-99.9,30.10,NE,51,8.0,12.0,-999,-99.99,,,-99.99,,2013-04-17 16:32:00,
2013-04-17 12:42:00,81.0,-99.9,30.10,ENE,67,8.0,13.0,-999,-99.99,,,-99.99,,2013-04-17 16:42:00,
2013-04-17 12:52:00,82.0,-99.9,30.10,ENE,78,9.0,13.0,-999,-99.99,,,-99.99,,2013-04-17 16:52:00,
2013-04-17 13:02:00,82.0,-99.9,30.09,East,98,7.0,12.0,-999,-99.99,,,-99.99,,2013-04-17 17:02:00,
2013-04-17 13:13:00,83.0,-99.9,30.09,ENE,65,6.0,11.0,-999,-99.99,,,-99.99,,2013-04-17 17:13:00,
2013-04-17 13:22:00,83.0,-99.9,30.08,NE,43,5.0,12.0,-999,-99.99,,,-99.99,,2013-04-17 17:22:00,
2013-04-17 13:33:00,84.0,-99.9,30.08,East,81,6.0,12.0,-999,-99.99,,,-99.99,,2013-04-17 17:33:00,
2013-04-17 13:42:00,83.0,-99.9,30.07,ESE,110,8.0,17.0,-999,-99.99,,,-99.99,,2013-04-17 17:42:00,
2013-04-17 13:52:00,83.0,-99.9,30.07,ENE,60,8.0,10.0,-999,-99.99,,,-99.99,,2013-04-17 17:52:00,
2013-04-17 14:02:00,84.0,-99.9,30.06,ENE,68,5.0,12.0,-999,-99.99,,,-99.99,,2013-04-17 18:02:00,
2013-04-17 14:12:00,84.0,-99.9,30.06,NE,44,5.0,11.0,-999,-99.99,,,-99.99,,2013-04-17 18:12:00,
2013-04-17 14:22:00,84.0,-99.9,30.06,ENE,71,9.0,13.0,-999,-99.99,,,-99.99,,2013-04-17 18:22:00,
2013-04-17 14:33:00,84.0,-99.9,30.06,NNE,31,4.0,10.0,-999,-99.99,,,-99.99,,2013-04-17 18:33:00,
2013-04-17 14:42:00,85.0,-99.9,30.05,ENE,59,8.0,11.0,-999,-99.99,,,-99.99,,2013-04-17 18:42:00,
2013-04-17 14:52:00,85.0,-99.9,30.05,NNE,33,9.0,14.0,-999,-99.99,,,-99.99,,2013-04-17 18:52:00,
2013-04-17 15:03:00,85.0,-99.9,30.04,NNE,26,9.0,14.0,-999,-99.99,,,-99.99,,2013-04-17 19:03:00,
2013-04-17 15:12:00,84.0,-99.9,30.04,NNE,33,10.0,15.0,-999,-99.99,,,-99.99,,2013-04-17 19:12:00,
2013-04-17 15:22:00,85.0,-99.9,30.04,NE,52,8.0,12.0,-999,-99.99,,,-99.99,,2013-04-17 19:22:00,
2013-04-17 15:32:00,83.0,-99.9,30.04,ENE,75,10.0,14.0,-999,-99.99,,,-99.99,,2013-04-17 19:32:00,
2013-04-17 15:42:00,85.0,-99.9,30.04,NE,47,6.0,13.0,-999,-99.99,,,-99.99,,2013-04-17 19:42:00,
2013-04-17 15:52:00,84.0,-99.9,30.04,East,81,9.0,12.0,-999,-99.99,,,-99.99,,2013-04-17 19:52:00,
2013-04-17 16:03:00,84.0,-99.9,30.03,East,91,6.0,10.0,-999,-99.99,,,-99.99,,2013-04-17 20:03:00,
2013-04-17 16:12:00,85.0,-99.9,30.03,East,87,8.0,12.0,-999,-99.99,,,-99.99,,2013-04-17 20:12:00,
2013-04-17 16:22:00,84.0,-99.9,30.03,ESE,112,6.0,12.0,-999,-99.99,,,-99.99,,2013-04-17 20:22:00,
2013-04-17 16:33:00,85.0,-99.9,30.03,ENE,58,7.0,10.0,-999,-99.99,,,-99.99,,2013-04-17 20:33:00,
2013-04-17 16:42:00,85.0,-99.9,30.02,NE,51,4.0,9.0,-999,-99.99,,,-99.99,,2013-04-17 20:42:00,
2013-04-17 16:53:00,85.0,-99.9,30.02,NNE,17,8.0,12.0,-999,-99.99,,,-99.99,,2013-04-17 20:53:00,
2013-04-17 17:03:00,85.0,-99.9,30.02,NNE,22,8.0,11.0,-999,-99.99,,,-99.99,,2013-04-17 21:03:00,
2013-04-17 17:13:00,86.0,-99.9,30.02,NNE,31,6.0,13.0,-999,-99.99,,,-99.99,,2013-04-17 21:13:00,
2013-04-17 17:22:00,86.0,-99.9,30.02,ENE,58,2.0,9.0,-999,-99.99,,,-99.99,,2013-04-17 21:22:00,
2013-04-17 17:33:00,85.0,-99.9,30.02,ENE,60,8.0,11.0,-999,-99.99,,,-99.99,,2013-04-17 21:33:00,
2013-04-17 17:43:00,85.0,-99.9,30.02,NE,48,3.0,8.0,-999,-99.99,,,-99.99,,2013-04-17 21:43:00,
2013-04-17 17:53:00,85.0,-99.9,30.02,NNE,17,7.0,9.0,-999,-99.99,,,-99.99,,2013-04-17 21:53:00,
2013-04-17 18:02:00,86.0,-99.9,30.02,East,96,4.0,11.0,-999,-99.99,,,-99.99,,2013-04-17 22:02:00,
2013-04-17 18:13:00,81.0,-99.9,30.02,South,175,13.0,19.0,-999,-99.99,,,-99.99,,2013-04-17 22:13:00,
2013-04-17 18:23:00,80.0,-99.9,30.02,South,174,5.0,12.0,-999,-99.99,,,-99.99,,2013-04-17 22:23:00,
2013-04-17 18:33:00,80.0,-99.9,30.02,South,171,8.0,16.0,-999,-99.99,,,-99.99,,2013-04-17 22:33:00,
2013-04-17 18:43:00,81.0,-99.9,30.03,South,185,4.0,13.0,-999,-99.99,,,-99.99,,2013-04-17 22:43:00,
2013-04-17 18:53:00,80.0,-99.9,30.03,South,190,3.0,9.0,-999,-99.99,,,-99.99,,2013-04-17 22:53:00,
2013-04-17 19:02:00,80.0,-99.9,30.03,SSW,198,2.0,5.0,-999,-99.99,,,-99.99,,2013-04-17 23:02:00,
2013-04-17 19:12:00,80.0,-99.9,30.03,SSW,205,4.0,6.0,-999,-99.99,,,-99.99,,2013-04-17 23:12:00,
2013-04-17 19:22:00,80.0,-99.9,30.04,SSW,192,2.0,6.0,-999,-99.99,,,-99.99,,2013-04-17 23:22:00,
2013-04-17 19:32:00,79.0,-99.9,30.04,SSW,212,4.0,9.0,-999,-99.99,,,-99.99,,2013-04-17 23:32:00,
2013-04-17 19:42:00,79.0,-99.9,30.04,SW,233,9.0,12.0,-999,-99.99,,,-99.99,,2013-04-17 23:42:00,
2013-04-17 19:52:00,79.0,-99.9,30.05,SSW,199,1.0,10.0,-999,-99.99,,,-99.99,,2013-04-17 23:52:00,
2013-04-17 20:02:00,76.0,-99.9,30.05,NNE,30,7.0,11.0,-999,-99.99,,,-99.99,,2013-04-18 00:02:00,
2013-04-17 20:12:00,75.0,-99.9,30.05,North,349,4.0,7.0,-999,-99.99,,,-99.99,,2013-04-18 00:12:00,
2013-04-17 20:22:00,75.0,-99.9,30.05,NE,34,2.0,4.0,-999,-99.99,,,-99.99,,2013-04-18 00:22:00,
2013-04-17 20:32:00,75.0,-99.9,30.05,ESE,116,1.0,2.0,-999,-99.99,,,-99.99,,2013-04-18 00:32:00,
2013-04-17 20:43:00,76.0,-99.9,30.05,South,176,6.0,8.0,-999,-99.99,,,-99.99,,2013-04-18 00:43:00,
2013-04-17 20:52:00,76.0,-99.9,30.06,SSW,196,1.0,9.0,-999,-99.99,,,-99.99,,2013-04-18 00:52:00,
2013-04-17 21:02:00,76.0,-99.9,30.06,South,174,4.0,7.0,-999,-99.99,,,-99.99,,2013-04-18 01:02:00,
2013-04-17 21:12:00,76.0,-99.9,30.06,NE,36,4.0,8.0,-999,-99.99,,,-99.99,,2013-04-18 01:12:00,
2013-04-17 21:22:00,76.0,-99.9,30.06,SE,133,2.0,5.0,-999,-99.99,,,-99.99,,2013-04-18 01:22:00,
2013-04-17 21:32:00,75.0,-99.9,30.06,ESE,123,2.0,4.0,-999,-99.99,,,-99.99,,2013-04-18 01:32:00,
2013-04-17 21:42:00,76.0,-99.9,30.06,NNW,329,1.0,2.0,-999,-99.99,,,-99.99,,2013-04-18 01:42:00,
2013-04-17 21:52:00,76.0,-99.9,30.06,ENE,76,0.0,1.0,-999,-99.99,,,-99.99,,2013-04-18 01:52:00,
2013-04-17 22:02:00,76.0,-99.9,30.07,ESE,107,1.0,2.0,-999,-99.99,,,-99.99,,2013-04-18 02:02:00,
2013-04-17 22:12:00,76.0,-99.9,30.06,ESE,109,1.0,3.0,-999,-99.99,,,-99.99,,2013-04-18 02:12:00,
2013-04-17 22:22:00,77.0,-99.9,30.06,East,98,6.0,10.0,-999,-99.99,,,-99.99,,2013-04-18 02:22:00,
2013-04-17 22:32:00,77.0,-99.9,30.07,ESE,119,5.0,9.0,-999,-99.99,,,-99.99,,2013-04-18 02:32:00,
2013-04-17 22:42:00,77.0,-99.9,30.07,ESE,119,5.0,9.0,-999,-99.99,,,-99.99,,2013-04-18 02:42:00,
2013-04-17 22:52:00,77.0,-99.9,30.07,ESE,119,5.0,9.0,-999,-99.99,,,-99.99,,2013-04-18 02:52:00,
2013-04-17 23:02:00,75.0,-99.9,30.07,SSE,149,4.0,7.0,-999,-99.99,,,-99.99,,2013-04-18 03:02:00,
2013-04-17 23:12:00,75.0,-99.9,30.07,ESE,121,3.0,5.0,-999,-99.99,,,-99.99,,2013-04-18 03:12:00,
2013-04-17 23:22:00,75.0,-99.9,30.07,ESE,116,3.0,5.0,-999,-99.99,,,-99.99,,2013-04-18 03:22:00,
2013-04-17 23:33:00,76.0,-99.9,30.07,East,95,4.0,6.0,-999,-99.99,,,-99.99,,2013-04-18 03:33:00,
2013-04-17 23:43:00,76.0,-99.9,30.07,ENE,76,5.0,8.0,-999,-99.99,,,-99.99,,2013-04-18 03:43:00,
2013-04-17 23:53:00,76.0,-99.9,30.07,ENE,60,4.0,8.0,-999,-99.99,,,-99.99,,2013-04-18 03:53:00,